Regional Weather Roundup
Issued by NWS

Home | Current Version | Previous Version | Text Only | Print | Product List | Glossary Off
Versions: 1 2 3 4 5 6 7 8 9 10 11 12 13 14 15 16 17 18 19 20 21 22 23 24 25 26 27 28 29 30 31 32 33 34 35 36 37 38 39 40 41 42 43 44 45 46 47 48 49 50

000
ASUS45 KABQ 242210
RWRNM
WEATHER ROUNDUP FOR NEW MEXICO
NATIONAL WEATHER SERVICE ALBUQUERQUE NM
400 PM MDT THU APR 24 2014

NOTE: "FAIR" MEANS FEW OR NO CLOUDS BELOW 12,000 FEET AGL WITH NO
       SIGNIFICANT WEATHER OR OBSTRUCTIONS TO VISION.

      THIS PRODUCT IS RELEASED AS TWO VERSIONS.  ONE VERSION NEAR
      THE TOP OF THE HOUR CONTAINING PRELIMINARY DATA FROM ALBUQUERQUE
      AND OTHER STATIONS.  A FINAL VERSION WITH ADDITIONAL DATA IS
      ISSUED ABOUT 10 MINUTES AFTER THE HOUR.

NMZ501-503-504-510>518-242300-
NORTHWEST PLATEAU/NORTHCENTRAL MOUNTAINS

CITY           SKY/WX    TMP DP  RH WIND       PRES   REMARKS
FARMINGTON     SUNNY     64   1   8 SW9G20    30.05F
LOS ALAMOS     PTSUNNY   59  -6   7 W13       30.11S
SANTA FE       PTSUNNY   67  -7   5 SW23G33   30.03F
TAOS           PTSUNNY   63   7  11 SW12G24   30.09F
ANGEL FIRE     FAIR      55   5  13 W20G31    30.10F

$$
NMZ402-403-502-505>509-242300-
WESTCENTRAL MOUNTAINS/SOUTHWEST MOUNTAINS

CITY           SKY/WX    TMP DP  RH WIND       PRES   REMARKS
GALLUP         MOSUNNY   66   4   8 VRB5      30.07F
GRANTS         SUNNY     67   5   8 N3        30.07F
SILVER CITY    SUNNY     73   7   7 SW15G26   30.07F

$$
NMZ407-409-411-412-242300-
SOUTHERN DESERTS

CITY           SKY/WX    TMP DP  RH WIND       PRES   REMARKS
LORDSBURG      FAIR      79  19  11 W8G24     30.00F
DEMING         SUNNY     78  12   8 VRB7G18   30.00F
LAS CRUCES     SUNNY     78   9   7 W10       30.02F
HOLLOMAN AFB   MOSUNNY   76   5   6 SW6       29.99F
ALAMOGORDO     MOSUNNY   75   3   6 W7        30.01F
T OR C         SUNNY     74   8   8 SE8       30.00F

$$
NMZ519>523-242300-
CENTRAL VALLEYS/CENTRAL HIGHLANDS

CITY           SKY/WX    TMP DP  RH WIND       PRES   REMARKS
ALBUQUERQUE    MOSUNNY   67   9  10 SE3       30.05F
DOUBLE EAGLE   PTSUNNY   66  10  11 VRB3      30.06F
MORIARTY ARPT  FAIR      66   8  10 W12G20    30.08F
CLINES CORNERS PTSUNNY   62   0   8 NW17G28   30.08F
BELEN          FAIR      69  15  12 NE6       30.03F
SOCORRO        FAIR      74  13  10 SE6       30.02F

$$
NMZ524>526-539-540-242300-
SOUTHCENTRAL MOUNTAINS

CITY           SKY/WX    TMP DP  RH WIND       PRES   REMARKS
RUIDOSO        MOSUNNY   66   0   7 SW5       30.13F

$$
NMZ527>531-242300-
NORTHEAST HIGHLANDS/NORTHEAST PLAINS

CITY           SKY/WX    TMP DP  RH WIND       PRES   REMARKS
LAS VEGAS      CLOUDY    65   4   9 W20       30.02F
RATON          SUNNY     70  16  12 VRB6G17   29.94F
CLAYTON        MOSUNNY   68  14  12 S16G23    29.96F

$$
NMZ532>537-242300-
EASTCENTRAL PLAINS

CITY           SKY/WX    TMP DP  RH WIND       PRES   REMARKS
TUCUMCARI      PTSUNNY   74  22  14 SW9       29.95F
CANNON AFB     PTSUNNY   69  26  19 SW10      30.01F
CLOVIS AIRPORT PTSUNNY   72  25  17 NW5       30.03F

$$
NMZ028-029-538-242300-
SOUTHEAST PLAINS

CITY           SKY/WX    TMP DP  RH WIND       PRES   REMARKS
ROSWELL        MOSUNNY   77  24  14 E9        29.98F
ARTESIA        MOSUNNY   75  25  15 E7        29.98F
CARLSBAD       MOSUNNY   78  20  11 CALM      29.96F


$$



USA.gov is the U.S. government's official web portal to all federal, state and local government web resources and services.